This is the latest recevied weather packets stored in our database for station/object KC9GSD. If no packets are shown the sender has not sent any weather packets the latest 1 day(s).
| Time | Temp. | Humidity | Pressure | Rain* | Wind** | Luminosity | Snow |
|---|---|---|---|---|---|---|---|
| 1777985530 | 15° C | 77% | 1014.8 hPa | 0 mm | 0 m/s | 89 W/m² | - |
| 1777985227 | 15° C | 75% | 1014.7 hPa | 0 mm | 0 m/s | 55 W/m² | - |
| 1777984923 | 14.44° C | 77% | 1014.6 hPa | 0 mm | 0 m/s | 54 W/m² | - |
| 1777984619 | 14.44° C | 78% | 1014.8 hPa | 0 mm | 0 m/s | 60 W/m² | - |
| 1777984316 | 14.44° C | 79% | 1014.9 hPa | 0 mm | 0 m/s | 50 W/m² | - |
| 1777984013 | 13.89° C | 78% | 1014.8 hPa | 0 mm | 0.45 m/s, 142° | 59 W/m² | - |
| 1777983709 | 13.33° C | 80% | 1014.6 hPa | 0 mm | 0 m/s | 48 W/m² | - |
| 1777983406 | 12.78° C | 81% | 1014.6 hPa | 0 mm | 0 m/s | 42 W/m² | - |
| 1777983103 | 12.78° C | 81% | 1014.5 hPa | 0 mm | 0 m/s | 38 W/m² | - |
| 1777982799 | 11.67° C | 83% | 1014.2 hPa | 0 mm | 0 m/s | 36 W/m² | - |
| 1777982495 | 11.67° C | 85% | 1014.3 hPa | 0 mm | 0 m/s | 34 W/m² | - |
| 1777982189 | 11.67° C | 86% | 1014.2 hPa | 0 mm | 0 m/s | 30 W/m² | - |
| 1777981887 | 11.67° C | 86% | 1014 hPa | 0 mm | 0 m/s | 27 W/m² | - |
| 1777981584 | 11.67° C | 85% | 1013.8 hPa | 0 mm | 0 m/s | 25 W/m² | - |
| 1777981280 | 11.67° C | 85% | 1013.9 hPa | 0 mm | 0 m/s | 24 W/m² | - |
| 1777980977 | 11.67° C | 84% | 1013.7 hPa | 0 mm | 0 m/s | 23 W/m² | - |
| 1777980674 | 11.67° C | 84% | 1013.4 hPa | 0 mm | 0 m/s | 21 W/m² | - |
| 1777980370 | 11.67° C | 83% | 1013.4 hPa | 0 mm | 0.45 m/s, 132° | 19 W/m² | - |
| 1777980069 | 11.67° C | 82% | 1013.5 hPa | 0 mm | 0.45 m/s, 135° | 18 W/m² | - |
| 1777979768 | 11.67° C | 83% | 1013.4 hPa | 0 mm | 0 m/s | 17 W/m² | - |
| 1777979464 | 11.67° C | 84% | 1013.4 hPa | 0 mm | 0.45 m/s, 126° | 14 W/m² | - |
| 1777979160 | 11.67° C | 83% | 1013.3 hPa | 0 mm | 0 m/s | 8 W/m² | - |
| 1777978858 | 11.67° C | 83% | 1013.1 hPa | 0 mm | 0 m/s | 5 W/m² | - |
| 1777978554 | 11.67° C | 82% | 1013.2 hPa | 0 mm | 0 m/s | 3 W/m² | - |
| 1777978250 | 12.22° C | 83% | 1013.1 hPa | 0 mm | 0 m/s | 2 W/m² | - |
* Rain latest hour (hover to see other rain measurements)
** Current wind speed in m/s (hover to see current wind gust speed)